Regional Weather Roundup
Issued by NWS

Home | Current Version | Previous Version | Text Only | Print | Product List | Glossary On
Versions: 1 2 3 4 5 6 7 8 9 10 11 12 13 14 15 16 17 18 19 20 21 22 23 24 25 26 27 28 29 30 31 32 33 34 35 36 37 38 39 40 41 42 43 44 45 46 47 48 49 50
000
ASUS46 KSEW 191310
RWRWA

WASHINGTON REGIONAL WEATHER ROUNDUP
NATIONAL WEATHER SERVICE SEATTLE WA
500 AM PST SUN FEB 19 2017

NOTE:"FAIR" INDICATES FEW OR NO CLOUDS BELOW 12,000 FEET WITH NO
SIGNIFICANT WEATHER AND/OR OBSTRUCTIONS TO VISIBILITY.

WAZ507-509-555>559-191400-
SEATTLE, TACOMA, EVERETT, AND VICINITY

CITY           SKY/WX    TMP DP  RH WIND       PRES   REMARKS
EVERETT        MOCLDY    41  38  89 VRB3      29.39F
BOEING FIELD   MOCLDY    42  41  96 S3        29.39F
RENTON         MOCLDY    41  41 100 CALM      29.39F
SEATAC AIRPORT MOCLDY    43  42  96 SE3       29.39F
JBLM-MCCHORD   FOG       37  37 100 CALM      29.38F VSB 3/4
PUYALLUP       DRIZZLE   37  37 100 CALM      29.38F
BREMERTON      CLOUDY    39  37  93 CALM      29.42F
JBLM-FT LEWIS  CLOUDY    40  40 100 CALM      29.38F
TACOMA NARROWS PTCLDY    41  40  96 CALM      29.38F
$$

WAZ001-503-506-510-514-515-191400-
NORTH INTERIOR

CITY           SKY/WX    TMP DP  RH WIND       PRES   REMARKS
BELLINGHAM     CLOUDY    40  39  97 NE6       29.39S
FRIDAY HARBOR  MOCLDY    44  39  82 SE13      29.37F
EASTSOUND      MOCLDY    45  37  76 SE10G16   29.36S
PORT ANGELES   CLOUDY    39  39 100 SW5       29.34F
EDIZ HOOK      CLOUDY    43  40  89 SW5       29.34F
PORT TOWNSEND  FAIR      41  37  87 SE9       29.38S
NAS WHIDBEY    CLOUDY    45  37  73 SE17      29.40F
ARLINGTON      CLOUDY    39  32  75 CALM      29.42F
BURLINGTON     CLOUDY    41  37  87 E5        29.39F
$$

WAZ020-022-039-040-504-511-512-191400-
SOUTHWEST INTERIOR

CITY           SKY/WX    TMP DP  RH WIND       PRES   REMARKS
SHELTON        LGT RAIN  41  38  89 N6        29.36F
OLYMPIA        CLOUDY    39  39 100 CALM      29.38F
CHEHALIS       CLOUDY    41  41 100 S6        29.38S
KELSO          CLOUDY    43  40  89 S9        29.43R
VANCOUVER      CLOUDY    44  39  82 SE8       29.44R
SCAPPOOSE, OR  CLOUDY    43  40  89 SE10      29.42R
PORTLAND, OR   CLOUDY    42  38  85 S9        29.44R
$$

WAZ021-516-517-191400-
WASHINGTON COAST

CITY           SKY/WX    TMP DP  RH WIND       PRES   REMARKS
FORKS          LGT RAIN  38  37  97 E3        29.33F
HOQUIAM        LGT RAIN  41  40  96 E12       29.34S
ASTORIA, OR    LGT RAIN  42  38  85 SE9       29.35S
$$

WAZ019-023-024-040-567>569-191400-
CASCADE MOUNTAINS AND COLUMBIA GORGE

CITY           SKY/WX    TMP DP  RH WIND       PRES   REMARKS
STAMPEDE PASS  NOT AVBL
TROUTDALE, OR  LGT RAIN  44  38  79 SE7G17    29.45S
THE DALLES, OR CLOUDY    34  33  96 N3        29.49R FOG
$$

WAZ026-027-041>044-520-521-191400-
EAST SLOPES

CITY           SKY/WX    TMP DP  RH WIND       PRES   REMARKS
OMAK           CLOUDY    35  32  88 S6        29.47S
WENATCHEE      FOG       33  33 100 E7        29.46S VSB 1/4
ELLENSBURG     CLOUDY    35  32  88 E3        29.43S
YAKIMA         FOG       36  35  96 CALM      29.47R VSB 1/4
SUNNYSIDE ARPT PTSUNNY   32  32 100 S7        29.48R
$$

WAZ028-034-035-191400-
COLUMBIA BASIN

CITY           SKY/WX    TMP DP  RH WIND       PRES   REMARKS
EPHRATA        SNOW      33  29  85 NE3       29.47S VSB 1/2
MOSES LAKE     LGT RAIN  34  32  92 E5        29.49S VSB 1/2
PASCO          MOCLDY    33  32  96 SE5       29.51R HAZE
HERMISTON, OR  FOG       33  33 100 SE7       29.49S VSB 1/4
$$

WAZ036>038-191400-
NORTHEAST WASHINGTON

CITY           SKY/WX    TMP DP  RH WIND       PRES   REMARKS
SPOKANE GEIGER FOG       33  32  96 E5        29.46S VSB 1/2
SPOKANE FELTS  CLOUDY    36  34  92 CALM      29.48R
FAIRCHILD AFB  CLOUDY    33  33 100 E3        29.44F FOG
COEURDALENE,ID CLOUDY    33  32  96 CALM      29.48S
DEER PARK      CLOUDY    33  31  92 NE6       29.47S FOG
$$

WAZ029>033-191400-
SOUTHEAST WASHINGTON

CITY           SKY/WX    TMP DP  RH WIND       PRES   REMARKS
PULLMAN        LGT RAIN  37  34  89 S12       29.49R
LEWISTON, ID   LGT RAIN  39  35  86 SE6       29.50R
WALLA WALLA    CLOUDY    37  37 100 CALM      29.50R
PENDLETON, OR  FOG       34  34 100 E7        29.49R VSB 1/4
$$



USA.gov is the U.S. government's official web portal to all federal, state and local government web resources and services.